Location: Unspecified
(0.0000°N, 0.0000°E)
Time: 06:32:22
(UTC+00:00)

Vanguard 1 - Pass Details

Date: 22 November 2019
Orbit: 652 x 3832 km, 34.3° (Epoch: 10 December)

Event Time Altitude Azimuth Distance (km) Brightness Sun altitude
Rises 15:55:28 0° 338° (NNW) 2,945 12.5 25.8°
Reaches altitude 10° 15:58:34 10° 3° (N) 2,085 11.6 25.1°
Maximum altitude 16:01:17 15° 40° (NE) 1,881 11.2 24.5°
Drops below altitude 10° 16:04:24 10° 76° (ENE) 2,454 11.6 23.8°
Sets 16:08:34 0° 98° (E) 3,825 12.6 22.8°
